Location: Unspecified
(45.3999°N, 88.1269°W)
Time: 05:02:16
(UTC-06:00)

Cosmos 1674 - Visible Passes

Search period start: 18 December 2017 00:00
Search period end: 28 December 2017 00:00
Orbit: 498 x 521 km, 82.5° (Epoch: 17 December)

Date Brightness Start Highest point End Pass type
(mag) Time Alt. Az. Time Alt. Az. Time Alt. Az.
21 Dec 5.5 06:57:28 10° NE 06:59:12 13° ENE 07:00:56 10° E visible
22 Dec 5.9 06:41:49 10° ENE 06:42:09 10° ENE 06:42:30 10° ENE visible
27 Dec 4.4 06:49:59 10° N 06:53:28 34° ENE 06:56:53 10° SE visible
